Weather History for Molokai, HI

Change the Weather History Date:

Friday, May 17, 2013

  Actual Average Record
Temperature  
Mean Temperature 74 °F -  
Max Temperature 80 °F 81 °F 86 °F (1980)
Min Temperature 68 °F 67 °F 60 °F (1987)
Cooling Degree Days 10    
Growing Degree Days 24 (Base 50)    
Moisture  
Dew Point 63 °F    
Average Humidity 70    
Maximum Humidity 87    
Minimum Humidity 56    
Precipitation  
Precipitation 0.00 in - - ()
Sea Level Pressure  
Sea Level Pressure 30.06 in    
Wind  
Wind Speed 11 mph (NE)    
Max Wind Speed 22 mph    
Max Gust Speed 32 mph    
Visibility 10 miles    
Events      
Averages and records for this station are not official NWS values.
T = Trace of Precipitation, MM = Missing Value Source: NWS Daily Summary

Daily Weather History Graph

Daily Weather History Graph

Search for Another Location

Airport:

Trip Planner

Search our weather history database for the weather conditions in past years. The results will help you decide how hot, cold, wet, or windy it might be!

Date:

Astronomy

May. 17, 2013 Rise Set
Actual Time 5:49 AM HST 7:00 PM HST
Civil Twilight 5:25 AM HST 7:24 PM HST
Nautical Twilight 4:57 AM HST 7:52 PM HST
Astronomical Twilight 4:27 AM HST 8:22 PM HST
Moon 12:10 PM HST (5/17) 12:18 AM HST (5/17)
Length of Visible Light 13h 58m
Length of Day
13h 10m
Waxing Crescent, 47% of the Moon is Illuminated
May 17
Waxing Crescent
May 17
First Quarter
May 24
Full
May 31
Last Quarter
Jun 8
New

Hourly Weather History & Observations

Time (HST) Temp. Heat Index Dew Point Humidity Pressure Visibility Wind Dir Wind Speed Gust Speed Precip Events Conditions
12:54 AM 70.0 °F - 64.0 °F 81% 30.09 in 10.0 mi Variable 6.9 mph - N/A   Clear
1:54 AM 70.0 °F - 63.0 °F 78% 30.07 in 10.0 mi Variable 4.6 mph - N/A   Clear
2:54 AM 70.0 °F - 66.0 °F 87% 30.06 in 10.0 mi ENE 10.4 mph 21.9 mph N/A   Partly Cloudy
3:54 AM 69.1 °F - 64.0 °F 84% 30.06 in 10.0 mi ENE 10.4 mph - N/A   Clear
4:54 AM 69.1 °F - 64.9 °F 87% 30.06 in 10.0 mi NNE 10.4 mph 18.4 mph N/A   Mostly Cloudy
5:54 AM 70.0 °F - 64.9 °F 84% 30.07 in 10.0 mi NNE 8.1 mph - N/A   Mostly Cloudy
6:54 AM 71.1 °F - 64.9 °F 81% 30.08 in 10.0 mi NE 12.7 mph 20.7 mph 0.00 in   Scattered Clouds
7:54 AM 73.9 °F - 64.0 °F 71% 30.09 in 10.0 mi ENE 15.0 mph 21.9 mph N/A   Clear
8:54 AM 75.9 °F - 64.9 °F 69% 30.09 in 10.0 mi NE 20.7 mph 32.2 mph N/A   Clear
9:54 AM 78.1 °F - 63.0 °F 60% 30.09 in 10.0 mi NE 16.1 mph 25.3 mph N/A   Clear
10:54 AM 79.0 °F - 63.0 °F 58% 30.09 in 10.0 mi NE 17.3 mph 26.5 mph N/A   Clear
11:54 AM 80.1 °F 81.5 °F 63.0 °F 56% 30.07 in 10.0 mi NE 21.9 mph 31.1 mph N/A   Clear
12:54 PM 79.0 °F - 64.0 °F 60% 30.05 in 10.0 mi NE 13.8 mph 27.6 mph N/A   Clear
1:54 PM 79.0 °F - 64.0 °F 60% 30.04 in 10.0 mi NE 20.7 mph 28.8 mph N/A   Clear
2:54 PM 80.1 °F 81.7 °F 64.0 °F 58% 30.03 in 10.0 mi NE 17.3 mph 27.6 mph N/A   Clear
3:54 PM 79.0 °F - 64.0 °F 60% 30.01 in 10.0 mi NNE 13.8 mph 27.6 mph N/A   Clear
4:54 PM 77.0 °F - 62.1 °F 60% 30.01 in 10.0 mi NE 17.3 mph 26.5 mph N/A   Clear
5:54 PM 75.9 °F - 61.0 °F 60% 30.02 in 10.0 mi NE 15.0 mph 21.9 mph N/A   Mostly Cloudy
6:54 PM 73.0 °F - 61.0 °F 66% 30.04 in 10.0 mi NE 4.6 mph - N/A   Clear
7:20 PM 71.6 °F - 62.6 °F 73% 30.03 in 10.0 mi NNE 5.8 mph - N/A   Partly Cloudy
7:54 PM 72.0 °F - 60.1 °F 66% 30.06 in 10.0 mi Variable 3.5 mph - N/A   Clear
8:54 PM 71.1 °F - 59.0 °F 66% 30.06 in 10.0 mi NE 8.1 mph - N/A   Clear
9:54 PM 70.0 °F - 60.1 °F 71% 30.07 in 10.0 mi NE 6.9 mph - N/A   Clear
10:54 PM 70.0 °F - 60.1 °F 71% 30.06 in 10.0 mi NE 4.6 mph - N/A   Clear
11:54 PM 68.0 °F - 59.0 °F 73% 30.05 in 10.0 mi NE 3.5 mph - N/A   Clear